North Bennington, VT

12:44 AM EDT on September 30, 2016 (GMT -0400)
Morse State

Weather History for KDDH - February, 2013

Change the Weather History Date:

Monday, February 4, 2013

  Actual Average Record
Temperature  
Mean Temperature 19 °F 23 °F  
Max Temperature 23 °F 32 °F 59 °F (2016)
Min Temperature 14 °F 13 °F -4 °F (2015)
Degree Days  
Heating Degree Days 46 42  
Month to date heating degree days 181 170  
Since 1 July heating degree days 3869 4301  
Cooling Degree Days 0 0  
Month to date cooling degree days 0 0  
Year to date cooling degree days 0 0  
Moisture  
Dew Point 9 °F    
Average Humidity 59    
Maximum Humidity 77    
Minimum Humidity 41    
Precipitation  
Precipitation T in 0.06 in 0.07 in (2015)
Month to date precipitation T 0.26  
Year to date precipitation 1.45 3.01  
Sea Level Pressure  
Sea Level Pressure 29.82 in    
Wind  
Wind Speed 8 mph (WSW)    
Max Wind Speed 21 mph    
Max Gust Speed 31 mph    
Visibility 9 miles    
Events Snow    
T = Trace of Precipitation, MM = Missing Value Source: NWS Daily Summary

Daily Weather History Graph

Daily Weather History Graph

Search for Another Location

Airport or City:

Trip Planner

Search our weather history database for the weather conditions in past years. The results will help you decide how hot, cold, wet, or windy it might be!

Date:

Astronomy

Feb. 04, 2013 Rise Set
Actual Time 7:04 AM EST 5:10 PM EST
Civil Twilight 6:34 AM EST 5:40 PM EST
Nautical Twilight 6:00 AM EST 6:13 PM EST
Astronomical Twilight 5:27 AM EST 6:46 PM EST
Moon 1:38 AM EST (2/4) 11:29 AM EST (2/4)
Length of Visible Light 11h 05m
Length of Day
10h 06m
Last Quarter, 37% of the Moon is Illuminated
Feb 4
Last Quarter
Feb 10
New
Feb 17
First Quarter
Feb 25
Full
Mar 4
Last Quarter

Hourly Weather History & Observations

Time (EST) Temp. Windchill Dew Point Humidity Pressure Visibility Wind Dir Wind Speed Gust Speed Precip Events Conditions
12:54 AM 19.0 °F 12.3 °F 12.0 °F 74% 29.75 in 10.0 mi SSW 4.6 mph - N/A   Overcast
1:45 AM 19.4 °F 11.5 °F 14.0 °F 80% 29.72 in 1.8 mi SSW 5.8 mph - 0.00 in Snow Light Snow
1:54 AM 19.9 °F 13.4 °F 14.0 °F 78% 29.75 in 2.5 mi SSW 4.6 mph - 0.00 in Snow Light Snow
2:09 AM 19.4 °F 12.8 °F 15.8 °F 86% 29.72 in 5.0 mi SW 4.6 mph - 0.00 in Snow Light Snow
2:54 AM 19.9 °F 11.1 °F 15.1 °F 81% 29.75 in 10.0 mi Variable 6.9 mph - 0.00 in   Overcast
3:05 AM 19.4 °F 12.8 °F 15.8 °F 86% 29.72 in 10.0 mi Variable 4.6 mph - N/A   Overcast
3:41 AM 19.4 °F 12.8 °F 14.0 °F 80% 29.72 in 10.0 mi Variable 4.6 mph - N/A   Overcast
3:54 AM 19.9 °F 11.1 °F 14.0 °F 78% 29.76 in 10.0 mi West 6.9 mph - N/A   Overcast
5:54 AM 19.0 °F 9.0 °F 12.0 °F 74% 29.80 in 10.0 mi WSW 8.1 mph 16.1 mph N/A   Overcast
7:54 AM 18.0 °F 11.1 °F 10.0 °F 71% 29.84 in 10.0 mi WSW 4.6 mph - N/A   Overcast
8:54 AM 19.9 °F 11.1 °F 10.9 °F 68% 29.84 in 10.0 mi West 6.9 mph - N/A   Overcast
9:41 AM 19.4 °F 8.6 °F 10.4 °F 68% 29.80 in 10.0 mi West 9.2 mph - N/A   Mostly Cloudy
9:54 AM 19.9 °F 8.6 °F 10.9 °F 68% 29.83 in 10.0 mi West 10.4 mph 19.6 mph N/A   Mostly Cloudy
10:30 AM 21.2 °F 8.3 °F 10.4 °F 63% 29.79 in 10.0 mi West 13.8 mph 19.6 mph N/A   Mostly Cloudy
10:54 AM 21.9 °F 9.8 °F 8.1 °F 55% 29.83 in 10.0 mi WNW 12.7 mph 24.2 mph N/A   Mostly Cloudy
11:54 AM 23.0 °F 12.4 °F 7.0 °F 50% 29.81 in 10.0 mi West 10.4 mph 20.7 mph 0.00 in   Overcast
12:54 PM 21.9 °F 11.7 °F 3.9 °F 46% 29.83 in 10.0 mi WNW 9.2 mph 26.5 mph N/A   Overcast
1:54 PM 21.9 °F 12.5 °F 7.0 °F 53% 29.82 in 10.0 mi West 8.1 mph 19.6 mph 0.00 in   Overcast
2:24 PM 21.2 °F 10.9 °F 8.6 °F 58% 29.79 in 1.8 mi WNW 9.2 mph 19.6 mph 0.00 in Snow Light Snow
2:33 PM 21.2 °F 10.9 °F 10.4 °F 63% 29.79 in 3.0 mi West 9.2 mph - 0.00 in Snow Light Snow
2:54 PM 21.9 °F 9.8 °F 7.0 °F 53% 29.83 in 9.0 mi West 12.7 mph 18.4 mph 0.00 in   Overcast
3:54 PM 21.9 °F 11.7 °F 3.9 °F 46% 29.84 in 10.0 mi WNW 9.2 mph 17.3 mph N/A   Overcast
4:54 PM 21.0 °F 7.6 °F 1.9 °F 44% 29.85 in 10.0 mi West 15.0 mph 26.5 mph N/A   Mostly Cloudy
5:54 PM 19.9 °F 8.6 °F 1.9 °F 46% 29.88 in 10.0 mi WNW 10.4 mph 23.0 mph N/A   Scattered Clouds
6:54 PM 18.0 °F 12.7 °F 3.9 °F 54% 29.90 in 10.0 mi Variable 3.5 mph - N/A   Partly Cloudy
8:54 PM 17.1 °F 7.6 °F 5.0 °F 59% 29.93 in 10.0 mi SW 6.9 mph - N/A   Overcast
9:54 PM 16.0 °F 8.8 °F 6.1 °F 65% 29.93 in 10.0 mi WSW 4.6 mph - N/A   Overcast
10:54 PM 15.1 °F 6.4 °F 6.1 °F 68% 29.93 in 10.0 mi WSW 5.8 mph - N/A   Partly Cloudy
11:54 PM 14.0 °F 3.9 °F 6.1 °F 71% 29.94 in 10.0 mi SW 6.9 mph - N/A   Clear